[[{"header":{"parameterUnit":"m.s-1","parameterCategory":2,"la1":30.2991,"la2":30.254,"lo1":-89.0895,"lo2":-89.0444,"dy":0.0017,"dx":0.0017,"nx":28,"ny":28,"refTime":"2024-05-18T09:00:00:Z","depth":"0","parameterNumber":2,"parameterNumberName":"U-component_of_CURRENTS"},"data":[0,0,0,0,0,0,0,0,0,0,0,0,0,0,0,0,0,0,0,0,0,0,0,0,0,0,0,0,0,0,0,0,0,0,0,0,0,0,0,0,0,0,0,0,0,0,0,0,0,0,0,0,0,0,0,0,0,0,0.2191,0.2192,0,0.2281,0.2281,0.2282,0.2304,0.2304,0.2304,0.2304,0.2322,0.2322,0.2323,0,0,0,0,0,0,0,0,0,0,0,0,0,0.2063,0.2065,0.2191,0.2192,0.2194,0.2281,0.2281,0.2282,0.2305,0.2304,0.2304,0.2304,0.2322,0.2322,0.2323,0,0,0,0,0,0,0,0,0,0,0,0,0,0.2128,0.2065,0.219,0.2219,0.2223,0.2281,0.2282,0.2282,0.2305,0.2304,0.2304,0.2304,0.2321,0.2322,0.2323,0.2333,0,0,0.2326,0.2326,0,0,0,0,0,0,0,0,0.2124,0.2132,0.2213,0.2217,0.2221,0.2285,0.2243,0.2297,0.2305,0.2268,0.2304,0.2304,0.2306,0.2308,0.232,0.2334,0.2335,0.2326,0.2327,0.2327,0.2327,0,0,0,0,0,0,0,0.2119,0.2128,0.2221,0.2215,0.222,0.2236,0.2244,0.2254,0.2282,0.2272,0.2275,0.2292,0.2307,0.2319,0.232,0.2335,0.2326,0.2327,0.2327,0.2328,0.2382,0.2383,0,0,0,0,0,0,0.2117,0.2124,0.2219,0.2225,0.2177,0.2239,0.2248,0.2261,0.2284,0.2289,0.2292,0.2293,0.2318,0.2319,0.2321,0.2362,0.2327,0.2328,0.2328,0.2381,0.2382,0.2383,0,0,0,0,0,0,0.2114,0.2124,0.2215,0.218,0.2194,0.2242,0.2256,0.2263,0.228,0.2302,0.2304,0.2303,0.2318,0.232,0.2341,0.2361,0.2328,0.2329,0.238,0.2381,0.2382,0.2424,0,0,0,0,0,0,0.211,0.2123,0.2131,0.218,0.2196,0.2253,0.2257,0.2265,0.2293,0.2295,0.2312,0.2313,0.2318,0.234,0.2342,0.2362,0.233,0.2379,0.238,0.2382,0.2422,0.2427,0.2431,0,0,0,0,0,0.2105,0.2118,0.2131,0.2143,0.2205,0.2255,0.2263,0.2293,0.2294,0.2306,0.232,0.2313,0.2351,0.2341,0.2344,0.2364,0.2378,0.238,0.2382,0.242,0.2426,0.2431,0,0,0,0,0,0,0.206,0.2124,0.2138,0.2168,0.221,0.226,0.2278,0.2296,0.2317,0.2317,0.2325,0.2328,0.2354,0.2352,0.2341,0.2384,0.2363,0.2365,0.2391,0.2397,0.2401,0.2403,0.2331,0,0,0,0,0,0.2057,0.2084,0.2143,0.2164,0.2188,0.2231,0.2254,0.2278,0.2308,0.2317,0.233,0.2344,0.2364,0.2374,0.2387,0.2411,0.2436,0.2425,0.2429,0.2433,0.2436,0.2493,0.2504,0.2389,0.2389,0.2389,0,0,0.2046,0.2083,0.2098,0.2157,0.219,0.2235,0.2243,0.2284,0.2315,0.2315,0.2348,0.2359,0.2374,0.2405,0.2416,0.2406,0.2484,0.2436,0.2439,0.244,0.2497,0.2508,0.2518,0.2391,0.239,0.239,0,0,0.2045,0.207,0.2101,0.2139,0.22,0.2234,0.2247,0.2301,0.2317,0.2353,0.2365,0.2391,0.2411,0.2438,0.2451,0.2488,0.2506,0.2488,0.2517,0.2573,0.2583,0.2592,0.2661,0.2676,0.2493,0.2493,0.2493,0,0.2032,0.2077,0.2115,0.2157,0.219,0.2234,0.2274,0.2306,0.2357,0.2375,0.2364,0.2424,0.243,0.2488,0.25,0.25,0.2538,0.2495,0.258,0.2589,0.2598,0.2667,0.2683,0.2495,0.2495,0.2494,0.2494,0,0.2065,0.2101,0.212,0.2191,0.2226,0.2266,0.2322,0.2349,0.2368,0.2406,0.2453,0.2472,0.2509,0.2517,0.2518,0.2587,0.2599,0.258,0.2567,0.2612,0.2682,0.2698,0.2498,0.2497,0.2497,0.2496,0,0,0.2044,0.2129,0.2136,0.2167,0.2247,0.2278,0.2328,0.2391,0.2431,0.2467,0.2516,0.2552,0.2568,0.2584,0.2598,0.2641,0.2737,0.2637,0.2639,0.2709,0.2882,0.286,0.2876,0.2737,0.274,0.2742,0.2915,0,0.2062,0.2132,0.2173,0.2233,0.2274,0.2319,0.2364,0.2422,0.2467,0.2524,0.2559,0.2611,0.2596,0.2619,0.2663,0.2718,0.2777,0.2693,0.2824,0.2828,0.2806,0.2892,0.2764,0.2904,0.293,0.2933,0.2935,0,0.2088,0.2132,0.2192,0.2256,0.2277,0.2316,0.2389,0.2437,0.2528,0.2566,0.2629,0.2661,0.2741,0.2707,0.2842,0.2793,0.2841,0.2878,0.2886,0.2858,0.2835,0.2858,0.2932,0.2862,0.2959,0.2957,0.2955,0,0.2061,0.214,0.2181,0.2208,0.2296,0.2316,0.2358,0.2446,0.249,0.2601,0.2642,0.2746,0.2789,0.2872,0.2934,0.2905,0.3075,0.3046,0.3081,0.3081,0.2992,0.298,0.3012,0.3144,0.3143,0.3143,0.3142,0,0.2076,0.2098,0.2168,0.2196,0.2236,0.2298,0.2351,0.2416,0.251,0.2577,0.2659,0.2729,0.2828,0.292,0.2981,0.3089,0.3122,0.3113,0.313,0.3005,0.2992,0.294,0.2899,0.3149,0.3148,0.3147,0.3146,0,0.2041,0.2093,0.213,0.2207,0.2228,0.2251,0.2326,0.2366,0.247,0.2557,0.2591,0.2738,0.2873,0.2966,0.3115,0.3144,0.3169,0.3271,0.3125,0.312,0.3076,0.3041,0.2991,0.291,0.3365,0.3365,0.3366,0,0.2029,0.2054,0.2117,0.2128,0.2158,0.2199,0.2228,0.2336,0.239,0.2561,0.2602,0.2754,0.2852,0.3072,0.3168,0.3304,0.3188,0.3252,0.3163,0.3081,0.3056,0.2919,0.2843,0.3082,0.308,0.3078,0.3077,0,0.2,0.2017,0.2047,0.2073,0.2097,0.2125,0.2181,0.2219,0.2353,0.2436,0.2574,0.2667,0.2885,0.2981,0.3146,0.3206,0.3087,0.3225,0.3173,0.2872,0.2692,0.2618,0.2975,0.3063,0.3065,0.3066,0.3066,0.3067,0.1953,0.1955,0.1991,0.2001,0.2022,0.204,0.2042,0.2119,0.2195,0.231,0.2474,0.2579,0.2774,0.3,0.3035,0.3038,0.3028,0.2982,0.2966,0.2851,0.2695,0.3034,0.3108,0.3109,0.3111,0.3112,0.3113,0,0.1894,0.1905,0.1915,0.1923,0.1904,0.1951,0.1997,0.1994,0.2045,0.2188,0.2299,0.2482,0.259,0.2724,0.2854,0.2801,0.2648,0.2731,0.2499,0.2454,0.2799,0.2707,0.2656,0.2656,0.2656,0.2656,0.2656,0.2656,0.1863,0.1853,0.1858,0.1807,0.1804,0.1771,0.1779,0.1801,0.1876,0.197,0.2073,0.2208,0.2479,0.2655,0.265,0.2581,0.2389,0.2282,0.2296,0.2533,0.2554,0.2573,0.2477,0.2378,0.2378,0.1824,0.182,0.1817]},{"header":{"parameterUnit":"m.s-1","parameterCategory":2,"la1":30.2991,"la2":30.254,"lo1":-89.0895,"lo2":-89.0444,"dy":0.0017,"dx":0.0017,"nx":28,"ny":28,"refTime":"2024-05-18T09:00:00:Z","depth":"0","parameterNumber":3,"parameterNumberName":"V-component_of_CURRENTS"},"data":[0,0,0,0,0,0,0,0,0,0,0,0,0,0,0,0,0,0,0,0,0,0,0,0,0,0,0,0,0,0,0,0,0,0,0,0,0,0,0,0,0,0,0,0,0,0,0,0,0,0,0,0,0,0,0,0,0,0,0.0103,0.0102,0,0.0027,0.0026,0.0025,-0.0012,-0.0012,-0.0012,-0.0012,-0.0073,-0.0074,-0.0076,0,0,0,0,0,0,0,0,0,0,0,0,0,0.0147,0.0147,0.0103,0.0102,0.0101,0.0027,0.0026,0.0025,-0.0012,-0.0012,-0.0012,-0.0012,-0.0072,-0.0074,-0.0076,0,0,0,0,0,0,0,0,0,0,0,0,0,0.0105,0.0147,0.0103,0.0074,0.0071,0.0028,0.0026,0.0025,-0.0012,-0.0012,-0.0012,-0.0012,-0.0072,-0.0074,-0.0076,-0.0093,0,0,-0.0084,-0.0085,0,0,0,0,0,0,0,0,0.0107,0.0103,0.0079,0.0076,0.0072,0.0018,0.002,-0.0014,-0.0012,0.0018,-0.0012,-0.0012,-0.0041,-0.0046,-0.0061,-0.0096,-0.0099,-0.0084,-0.0086,-0.0087,-0.0088,0,0,0,0,0,0,0,0.011,0.0106,0.0072,0.0078,0.0074,0.0042,0.0036,0.0013,-0.0011,0.0016,0.0013,0.0006,-0.0043,-0.0059,-0.0063,-0.01,-0.0084,-0.0086,-0.0088,-0.0089,-0.0127,-0.0127,0,0,0,0,0,0,0.0125,0.0109,0.0075,0.007,0.0091,0.0041,0.0035,0.0034,-0.0011,-0.0018,0.0006,0.0004,-0.0055,-0.006,-0.0065,-0.0054,-0.0087,-0.0089,-0.0091,-0.0128,-0.0127,-0.0126,0,0,0,0,0,0,0.0126,0.0123,0.0078,0.0088,0.008,0.0041,0.004,0.0033,0.002,-0.0019,-0.0025,0.0001,-0.0055,-0.0062,-0.008,-0.0058,-0.009,-0.0093,-0.0128,-0.0127,-0.0127,-0.0054,0,0,0,0,0,0,0.0128,0.0124,0.0125,0.0089,0.008,0.0065,0.004,0.0031,0.0016,0.0013,-0.0025,-0.0031,-0.0055,-0.0076,-0.0082,-0.0062,-0.0095,-0.0129,-0.0128,-0.0127,-0.0057,-0.005,-0.0045,0,0,0,0,0,0.013,0.0138,0.0125,0.0121,0.0084,0.0065,0.0058,0.0029,0.0016,0.0016,-0.0012,-0.003,-0.0074,-0.0078,-0.0085,-0.0065,-0.0129,-0.0128,-0.0127,-0.0059,-0.0052,-0.0045,0,0,0,0,0,0,0.0162,0.0134,0.0119,0.0119,0.0098,0.0059,0.0055,0.0033,0.001,0.0007,-0.003,-0.0037,-0.0045,-0.0068,-0.0071,-0.0074,-0.0102,-0.0103,-0.0048,-0.0042,-0.0036,-0.001,-0.0097,0,0,0,0,0,0.0169,0.0165,0.0135,0.0136,0.0128,0.0091,0.0078,0.0059,0.0033,0.0022,-0.0003,-0.0029,-0.0048,-0.0054,-0.0078,-0.0082,-0.01,-0.0073,-0.0067,-0.0062,-0.0047,-0.0067,-0.0061,-0.0123,-0.0123,-0.0123,0,0,0.0181,0.0165,0.0163,0.0141,0.0122,0.0127,0.0084,0.0072,0.0078,0.002,0.0022,-0.0013,-0.0046,-0.0049,-0.0054,-0.0064,-0.0054,-0.0061,-0.0056,-0.0043,-0.0065,-0.0059,-0.0054,-0.0122,-0.0122,-0.0122,0,0,0.021,0.0192,0.0201,0.019,0.0166,0.0149,0.015,0.0117,0.0105,0.0093,0.0058,0.0039,0.0007,-0.0007,-0.0019,0.0003,-0.0027,-0.0005,0.005,0.0031,0.0036,0.004,0.0031,0.0034,0.0003,0.0003,0.0003,0,0.0229,0.0236,0.0201,0.0212,0.0215,0.0168,0.019,0.017,0.0136,0.0134,0.0107,0.0064,0.0032,0.0037,0.0044,0.0019,0.0003,0.0029,0.004,0.0043,0.0047,0.0036,0.0038,0.0007,0.0007,0.0006,0.0006,0,0.0265,0.0274,0.0282,0.0285,0.0283,0.0291,0.0268,0.0258,0.0235,0.0217,0.0204,0.0152,0.0132,0.0117,0.0087,0.0099,0.0078,0.0046,0.0026,0.0058,0.0044,0.0045,0.0012,0.0011,0.001,0.0009,0,0,0.0311,0.0309,0.0314,0.0332,0.0325,0.033,0.0341,0.0342,0.0358,0.0312,0.0329,0.0283,0.0247,0.0231,0.0187,0.0169,0.0173,0.0124,0.0122,0.0124,0.0138,0.0109,0.0107,0.0139,0.0139,0.014,0.0123,0,0.0357,0.0395,0.0382,0.0431,0.0456,0.0427,0.0446,0.0438,0.0423,0.0425,0.0367,0.0361,0.0294,0.0283,0.0256,0.0193,0.0178,0.0181,0.0101,0.0099,0.0076,0.0108,0.011,0.0093,0.0124,0.0124,0.0124,0,0.04,0.0425,0.0477,0.0511,0.0519,0.0543,0.057,0.0579,0.0565,0.055,0.0527,0.0476,0.0446,0.0377,0.0299,0.0303,0.0234,0.0179,0.0176,0.0127,0.0072,0.0064,0.0093,-0.0048,0.0125,0.0125,0.0125,0,0.0451,0.0493,0.0541,0.0553,0.058,0.0602,0.0619,0.0622,0.0642,0.0634,0.064,0.0587,0.0564,0.047,0.0343,0.0325,0.0252,0.021,0.0122,0.0119,0.0095,0.0089,-0.0014,0.016,0.016,0.016,0.016,0,0.0504,0.0545,0.057,0.0599,0.0666,0.0664,0.0727,0.0728,0.0745,0.0786,0.0711,0.0724,0.0584,0.0512,0.0389,0.0265,0.0285,0.0147,0.0117,0.012,0.0117,-0.003,-0.0099,0.016,0.016,0.016,0.016,0,0.0547,0.0559,0.0622,0.0669,0.0689,0.0739,0.0797,0.0834,0.0841,0.0891,0.0889,0.0838,0.0753,0.0599,0.0459,0.0335,0.0133,0.0155,0.0173,0.0145,-0.0069,-0.0133,-0.0248,-0.0302,0.0072,0.0071,0.007,0,0.0567,0.0601,0.0676,0.0716,0.0741,0.0809,0.085,0.088,0.0927,0.0963,0.0991,0.0931,0.0901,0.0682,0.0457,0.0251,0.0115,0.0107,0.0068,-0.0068,-0.0162,-0.0211,-0.0251,0.0068,0.0068,0.0067,0.0067,0,0.0615,0.0639,0.069,0.0773,0.0831,0.0904,0.0972,0.1024,0.1064,0.1111,0.1163,0.1147,0.0942,0.0737,0.0443,0.0293,0.0016,0.009,-0.0056,-0.017,-0.0223,-0.0293,0.0069,0.0062,0.0063,0.0063,0.0063,0.0063,0.0647,0.0695,0.0756,0.0835,0.0904,0.0994,0.1063,0.1137,0.123,0.1312,0.1289,0.1297,0.0996,0.0604,0.0368,-0.004,-0.0025,-0.0165,-0.0228,-0.0262,-0.0328,0.003,-0.0015,-0.0015,-0.0015,-0.0015,-0.0015,0,0.0684,0.0735,0.0809,0.0908,0.0987,0.1019,0.1136,0.1211,0.1334,0.141,0.1454,0.1323,0.0931,0.0546,-0.0004,-0.0306,-0.0402,-0.0466,-0.0539,-0.0562,-0.025,-0.0266,-0.036,-0.036,-0.036,-0.036,-0.036,-0.0359,0.0705,0.0777,0.0819,0.0955,0.1026,0.1143,0.1217,0.1337,0.1425,0.1536,0.1559,0.1549,0.1279,0.0238,-0.046,-0.0616,-0.0801,-0.0853,-0.0945,-0.0749,-0.0726,-0.0704,-0.0737,-0.0929,-0.0929,-0.1223,-0.1226,-0.1229]}],[{"header":{"parameterUnit":"m.s-1","parameterCategory":2,"la1":30.2991,"la2":30.254,"lo1":-89.0895,"lo2":-89.0444,"dy":0.0017,"dx":0.0017,"nx":28,"ny":28,"refTime":"2024-05-18T09:00:00:Z","depth":"2","parameterNumber":2,"parameterNumberName":"U-component_of_CURRENTS"},"data":[0,0,0,0,0,0,0,0,0,0,0,0,0,0,0,0,0,0,0,0,0,0,0,0,0,0,0,0,0,0,0,0,0,0,0,0,0,0,0,0,0,0,0,0,0,0,0,0,0,0,0,0,0,0,0,0,0,0,0.2034,0.2035,0,0.2121,0.2122,0.2122,0.2135,0.2135,0.2135,0.2134,0.214,0.2141,0.2141,0,0,0,0,0,0,0,0,0,0,0,0,0,0.1858,0.1861,0.2034,0.2035,0.2037,0.2121,0.2122,0.2122,0.2135,0.2135,0.2135,0.2134,0.214,0.2141,0.2141,0,0,0,0,0,0,0,0,0,0,0,0,0,0.1934,0.1862,0.2033,0.2057,0.2061,0.2121,0.2122,0.2122,0.2135,0.2135,0.2134,0.2134,0.214,0.2141,0.2141,0.2155,0,0,0.2143,0.2144,0,0,0,0,0,0,0,0,0.1929,0.1939,0.2052,0.2056,0.206,0.2121,0.2062,0.2131,0.2135,0.2101,0.2134,0.2134,0.213,0.2132,0.2143,0.2155,0.2156,0.2143,0.2144,0.2144,0.2144,0,0,0,0,0,0,0,0.1924,0.1936,0.2063,0.2054,0.2059,0.2057,0.2067,0.2075,0.2112,0.2104,0.2107,0.2125,0.2131,0.2142,0.2143,0.2156,0.2143,0.2144,0.2144,0.2145,0.2208,0.2209,0,0,0,0,0,0,0.1926,0.1931,0.206,0.2066,0.1998,0.2061,0.2072,0.2098,0.2114,0.2118,0.2125,0.2125,0.2141,0.2142,0.2143,0.2181,0.2144,0.2145,0.2145,0.2207,0.2208,0.221,0,0,0,0,0,0,0.1922,0.1937,0.2057,0.2004,0.202,0.2065,0.2094,0.21,0.2119,0.2131,0.2133,0.214,0.2141,0.2142,0.2159,0.218,0.2145,0.2146,0.2205,0.2207,0.2209,0.2242,0,0,0,0,0,0,0.1917,0.1935,0.1951,0.2005,0.2023,0.2096,0.2095,0.2102,0.2133,0.2134,0.2144,0.2144,0.2141,0.2158,0.216,0.218,0.2146,0.2204,0.2206,0.2208,0.224,0.2245,0.225,0,0,0,0,0,0.191,0.1938,0.1951,0.1967,0.2045,0.2097,0.2106,0.2132,0.2134,0.2146,0.2154,0.2144,0.2175,0.216,0.2161,0.2182,0.2202,0.2205,0.2208,0.2237,0.2244,0.225,0,0,0,0,0,0,0.1859,0.1944,0.196,0.2009,0.2051,0.2101,0.2122,0.2139,0.2157,0.2157,0.2157,0.2158,0.2181,0.218,0.2164,0.2209,0.2188,0.2192,0.221,0.2216,0.2221,0.223,0.2147,0,0,0,0,0,0.1859,0.1908,0.1973,0.2009,0.2034,0.2078,0.2102,0.2123,0.2151,0.216,0.2168,0.218,0.2195,0.2203,0.2213,0.2236,0.2259,0.2253,0.2258,0.2263,0.2272,0.2323,0.2334,0.2219,0.2219,0.2219,0,0,0.1842,0.1902,0.1923,0.2002,0.2037,0.208,0.209,0.2135,0.2162,0.2157,0.2186,0.2195,0.2206,0.2232,0.2243,0.2233,0.2311,0.2266,0.227,0.2277,0.2328,0.2339,0.2349,0.2221,0.2221,0.222,0,0,0.1852,0.1894,0.1943,0.1983,0.2054,0.2083,0.2099,0.2155,0.217,0.22,0.2209,0.2234,0.2248,0.2271,0.2281,0.2322,0.2335,0.2326,0.2359,0.2409,0.2419,0.2428,0.2486,0.2499,0.233,0.233,0.233,0,0.1829,0.1903,0.1958,0.2015,0.2045,0.2086,0.2126,0.2155,0.2204,0.2222,0.2208,0.2265,0.2268,0.2321,0.2336,0.2334,0.2368,0.2332,0.2416,0.2425,0.2434,0.2491,0.2505,0.2332,0.2331,0.2331,0.2331,0,0.1885,0.1932,0.1961,0.2048,0.2083,0.2124,0.2173,0.2202,0.2218,0.2248,0.2295,0.231,0.2346,0.2354,0.2354,0.2426,0.2434,0.2415,0.2399,0.2448,0.2504,0.2519,0.2335,0.2334,0.2333,0.2333,0,0,0.1858,0.1979,0.1988,0.2019,0.2102,0.2134,0.2181,0.2239,0.2276,0.2307,0.2356,0.2388,0.2406,0.2421,0.2437,0.2481,0.257,0.2478,0.2479,0.2533,0.2698,0.26,0.2606,0.2568,0.2571,0.2573,0.2718,0,0.1881,0.1985,0.2037,0.2092,0.2135,0.2176,0.2216,0.2268,0.2307,0.2363,0.2396,0.2445,0.243,0.2458,0.2501,0.2554,0.2609,0.2533,0.2645,0.2649,0.2553,0.262,0.2401,0.2502,0.2733,0.2735,0.2737,0,0.1915,0.1982,0.2056,0.2118,0.214,0.2174,0.2242,0.2284,0.237,0.2408,0.2469,0.2498,0.2579,0.2549,0.267,0.2626,0.267,0.2704,0.2709,0.2615,0.2577,0.2489,0.252,0.2761,0.276,0.2758,0.2756,0,0.1885,0.1977,0.2036,0.2062,0.2151,0.2176,0.2214,0.2296,0.2335,0.245,0.249,0.2585,0.2634,0.2704,0.2757,0.2731,0.2883,0.2853,0.2814,0.2808,0.264,0.2614,0.2947,0.2947,0.2946,0.2946,0.2945,0,0.1902,0.1932,0.2023,0.2059,0.2096,0.2159,0.2207,0.2274,0.2366,0.2426,0.2509,0.2576,0.2674,0.2753,0.2801,0.2851,0.2922,0.2839,0.2841,0.2646,0.262,0.2849,0.2835,0.2951,0.295,0.2949,0.2948,0,0.1871,0.1942,0.1982,0.2068,0.2089,0.2111,0.2184,0.2223,0.2326,0.2411,0.2449,0.2591,0.2704,0.2782,0.2915,0.2894,0.2962,0.2962,0.2727,0.2696,0.285,0.2838,0.2948,0.2945,0.2943,0.2942,0.2941,0,0.1877,0.1904,0.1969,0.1982,0.202,0.2061,0.2091,0.2197,0.2249,0.2414,0.2455,0.2593,0.2665,0.2811,0.282,0.2886,0.296,0.2718,0.2612,0.2861,0.2853,0.2842,0.2832,0.2426,0.242,0.2416,0.2413,0,0.1856,0.1869,0.1904,0.1934,0.1961,0.1987,0.2046,0.208,0.2214,0.2286,0.2411,0.248,0.2606,0.2569,0.2632,0.2641,0.2682,0.2627,0.2974,0.2436,0.2374,0.2364,0.237,0.2373,0.2377,0.238,0.2382,0.2384,0.1803,0.1807,0.1845,0.186,0.1885,0.1905,0.1902,0.1965,0.2024,0.2099,0.2258,0.2287,0.2351,0.2317,0.2297,0.2295,0.2467,0.2384,0.2396,0.2414,0.2304,0.2239,0.2194,0.2197,0.2199,0.2202,0.2203,0,0.173,0.1755,0.1769,0.1779,0.1765,0.1818,0.1861,0.1826,0.1839,0.1935,0.1989,0.1871,0.1858,0.1952,0.1874,0.1891,0.1861,0.1844,0.179,0.1831,0.1868,0.1727,0.1467,0.1464,0.1462,0.146,0,0,0.169,0.1691,0.1704,0.1659,0.1662,0.1628,0.1631,0.1583,0.1613,0.1584,0.1594,0.1706,0.1851,0.1595,0.1596,0.1523,0.1657,0.147,0.2063,0.2038,0.2071,0.2187,0.2018,0,0,0,0,0]},{"header":{"parameterUnit":"m.s-1","parameterCategory":2,"la1":30.2991,"la2":30.254,"lo1":-89.0895,"lo2":-89.0444,"dy":0.0017,"dx":0.0017,"nx":28,"ny":28,"refTime":"2024-05-18T09:00:00:Z","depth":"2","parameterNumber":3,"parameterNumberName":"V-component_of_CURRENTS"},"data":[0,0,0,0,0,0,0,0,0,0,0,0,0,0,0,0,0,0,0,0,0,0,0,0,0,0,0,0,0,0,0,0,0,0,0,0,0,0,0,0,0,0,0,0,0,0,0,0,0,0,0,0,0,0,0,0,0,0,-0.0101,-0.0102,0,-0.0179,-0.018,-0.0181,-0.0231,-0.0231,-0.0231,-0.0232,-0.0303,-0.0305,-0.0306,0,0,0,0,0,0,0,0,0,0,0,0,0,-0.0039,-0.0039,-0.0101,-0.0102,-0.0103,-0.0179,-0.018,-0.0182,-0.0231,-0.0231,-0.0231,-0.0232,-0.0302,-0.0305,-0.0307,0,0,0,0,0,0,0,0,0,0,0,0,0,-0.0087,-0.004,-0.0101,-0.0135,-0.0139,-0.0179,-0.018,-0.0182,-0.0231,-0.0231,-0.0231,-0.0232,-0.0302,-0.0304,-0.0307,-0.0318,0,0,-0.0315,-0.0316,0,0,0,0,0,0,0,0,-0.0084,-0.009,-0.0129,-0.0133,-0.0137,-0.0194,-0.0185,-0.0227,-0.0231,-0.0198,-0.0232,-0.0232,-0.0265,-0.0271,-0.0287,-0.0322,-0.0325,-0.0315,-0.0317,-0.0318,-0.0319,0,0,0,0,0,0,0,-0.0081,-0.0087,-0.0133,-0.013,-0.0135,-0.0162,-0.0169,-0.0193,-0.023,-0.0201,-0.0204,-0.021,-0.0267,-0.0284,-0.0289,-0.0326,-0.0315,-0.0317,-0.0319,-0.032,-0.0354,-0.0354,0,0,0,0,0,0,-0.0066,-0.0083,-0.0131,-0.0136,-0.0109,-0.0163,-0.0171,-0.0177,-0.023,-0.0238,-0.021,-0.0212,-0.028,-0.0286,-0.0292,-0.0284,-0.0318,-0.032,-0.0322,-0.0355,-0.0354,-0.0354,0,0,0,0,0,0,-0.0064,-0.0069,-0.0128,-0.011,-0.0119,-0.0163,-0.017,-0.0178,-0.0191,-0.0237,-0.0245,-0.0214,-0.028,-0.0288,-0.0309,-0.0288,-0.0322,-0.0324,-0.0356,-0.0355,-0.0354,-0.0284,0,0,0,0,0,0,-0.0062,-0.0068,-0.0067,-0.0109,-0.012,-0.0144,-0.017,-0.018,-0.0194,-0.0198,-0.0243,-0.025,-0.0281,-0.0304,-0.0311,-0.0292,-0.0326,-0.0357,-0.0355,-0.0354,-0.0287,-0.0281,-0.0275,0,0,0,0,0,-0.006,-0.0053,-0.0066,-0.0072,-0.0117,-0.0144,-0.0152,-0.0185,-0.0194,-0.0198,-0.0227,-0.0249,-0.0301,-0.0306,-0.0314,-0.0296,-0.0357,-0.0356,-0.0354,-0.029,-0.0282,-0.0276,0,0,0,0,0,0,-0.0024,-0.0059,-0.0074,-0.0078,-0.0106,-0.0151,-0.0155,-0.0177,-0.0204,-0.0204,-0.0247,-0.0256,-0.0267,-0.0291,-0.0295,-0.0301,-0.033,-0.033,-0.0278,-0.0271,-0.0265,-0.0243,-0.0328,0,0,0,0,0,-0.0015,-0.002,-0.0058,-0.0061,-0.0071,-0.0111,-0.0125,-0.0147,-0.0177,-0.0189,-0.0217,-0.0245,-0.0268,-0.0277,-0.0304,-0.0307,-0.033,-0.0299,-0.0293,-0.0288,-0.0275,-0.0299,-0.0294,-0.0349,-0.0349,-0.0349,0,0,-0.0003,-0.002,-0.0024,-0.0053,-0.0076,-0.0079,-0.012,-0.0134,-0.0135,-0.0191,-0.0195,-0.0229,-0.0266,-0.0274,-0.0279,-0.0289,-0.0283,-0.0286,-0.0281,-0.0271,-0.0297,-0.0292,-0.0287,-0.0348,-0.0348,-0.0348,0,0,0.0026,0.0006,0.0012,-0.0003,-0.003,-0.0053,-0.0052,-0.009,-0.0106,-0.0122,-0.0156,-0.0175,-0.0212,-0.023,-0.0245,-0.0221,-0.0255,-0.0227,-0.0174,-0.0197,-0.0193,-0.0189,-0.0205,-0.0203,-0.0218,-0.0218,-0.0218,0,0.0045,0.0047,0.001,0.0017,0.0016,-0.0034,-0.0019,-0.0045,-0.0083,-0.0085,-0.0112,-0.0155,-0.0189,-0.019,-0.0183,-0.0206,-0.0224,-0.0198,-0.0189,-0.0186,-0.0184,-0.02,-0.0199,-0.0214,-0.0215,-0.0215,-0.0215,0,0.0076,0.0081,0.0087,0.0081,0.0074,0.0077,0.0045,0.0038,0.0014,-0.0012,-0.0026,-0.0079,-0.0099,-0.0113,-0.0143,-0.0133,-0.0153,-0.0183,-0.0205,-0.0174,-0.0194,-0.0194,-0.0209,-0.0211,-0.0212,-0.0212,0,0,0.0114,0.011,0.0114,0.0129,0.0112,0.0112,0.0118,0.0109,0.0123,0.0074,0.0086,0.0037,0.0007,-0.0011,-0.005,-0.0069,-0.0072,-0.0109,-0.0113,-0.012,-0.0116,-0.0154,-0.0158,-0.0102,-0.0102,-0.0102,-0.0135,0,0.0153,0.0186,0.0172,0.021,0.0228,0.0201,0.0212,0.0198,0.0178,0.0176,0.0118,0.0107,0.0046,0.0042,0.0012,-0.0052,-0.007,-0.0059,-0.0149,-0.0151,-0.0185,-0.0159,-0.0128,-0.0157,-0.0135,-0.0135,-0.0136,0,0.0188,0.0211,0.0255,0.0283,0.0289,0.0307,0.0332,0.0333,0.0313,0.0297,0.0273,0.022,0.0188,0.0126,0.0039,0.0049,-0.002,-0.0076,-0.008,-0.0138,-0.0189,-0.0187,-0.0159,-0.0137,-0.0136,-0.0136,-0.0136,0,0.0235,0.0269,0.0312,0.0321,0.034,0.0367,0.038,0.0378,0.0392,0.0383,0.0391,0.0327,0.0308,0.0207,0.0082,0.0064,-0.0019,-0.0063,-0.016,-0.0163,-0.0165,-0.017,-0.0118,-0.0118,-0.0118,-0.0118,-0.0118,0,0.0281,0.0318,0.0342,0.0368,0.043,0.0426,0.0483,0.0488,0.05,0.0534,0.0461,0.0472,0.0328,0.0251,0.0123,-0.0014,0.001,-0.014,-0.0172,-0.0141,-0.0142,-0.0151,-0.0154,-0.0119,-0.0119,-0.0119,-0.0118,0,0.0323,0.0334,0.0389,0.0432,0.0452,0.0499,0.0554,0.059,0.0598,0.0644,0.0645,0.059,0.0491,0.0332,0.018,0.0053,-0.0085,-0.0139,-0.009,-0.0116,-0.0223,-0.0222,-0.025,-0.0251,-0.0253,-0.0254,-0.0255,0,0.0345,0.0376,0.044,0.048,0.0507,0.0572,0.0614,0.0641,0.0686,0.0718,0.0746,0.0674,0.0622,0.038,0.0154,-0.007,-0.0095,-0.0182,-0.0221,-0.0207,-0.0236,-0.0233,-0.023,-0.0192,-0.0192,-0.0192,-0.0193,0,0.0391,0.041,0.0454,0.054,0.06,0.0668,0.0739,0.0788,0.0825,0.0865,0.0903,0.0864,0.0637,0.0421,0.0119,-0.0033,-0.0151,-0.0197,-0.0181,-0.0171,-0.0158,-0.0184,-0.0183,-0.0195,-0.0195,-0.0195,-0.0195,-0.0195,0.0417,0.0461,0.0516,0.0599,0.0674,0.0765,0.083,0.0894,0.0973,0.1026,0.1001,0.095,0.0709,0.031,0.0064,-0.0183,-0.0188,-0.0271,-0.0267,-0.0264,-0.0259,-0.025,-0.0303,-0.0303,-0.0303,-0.0304,-0.0304,0,0.0443,0.0496,0.0573,0.0673,0.0759,0.0795,0.091,0.0963,0.1059,0.1091,0.1099,0.0876,0.0624,0.0355,-0.0013,-0.0251,-0.0258,-0.0316,-0.0262,-0.0258,-0.0255,-0.0249,-0.029,-0.0291,-0.0291,-0.0292,0,0,0.0456,0.0525,0.0571,0.0719,0.0801,0.0923,0.0994,0.1063,0.1114,0.1141,0.1115,0.1008,0.0701,0.0434,0.0125,-0.007,-0.0111,-0.0115,-0.0102,0.0003,0.0009,-0.0207,-0.019,0,0,0,0,0]}],[{"header":{"parameterUnit":"m.s-1","parameterCategory":2,"la1":30.2991,"la2":30.254,"lo1":-89.0895,"lo2":-89.0444,"dy":0.0017,"dx":0.0017,"nx":28,"ny":28,"refTime":"2024-05-18T09:00:00:Z","depth":"4","parameterNumber":2,"parameterNumberName":"U-component_of_CURRENTS"},"data":[0,0,0,0,0,0,0,0,0,0,0,0,0,0,0,0,0,0,0,0,0,0,0,0,0,0,0,0,0,0,0,0,0,0,0,0,0,0,0,0,0,0,0,0,0,0,0,0,0,0,0,0,0,0,0,0,0,0,0.0547,0.0547,0,0.0569,0.057,0.0571,0.065,0.0651,0.0652,0.0653,0.0794,0.0797,0.0799,0,0,0,0,0,0,0,0,0,0,0,0,0,0.07,0.0696,0.0547,0.0547,0.0547,0.0569,0.057,0.0571,0.065,0.0651,0.0653,0.0654,0.0793,0.0796,0.0799,0,0,0,0,0,0,0,0,0,0,0,0,0,0.0675,0.0695,0.0547,0.0584,0.0587,0.0569,0.057,0.0571,0.0649,0.0651,0.0653,0.0655,0.0792,0.0796,0.08,0.0787,0,0,0.0812,0.0814,0,0,0,0,0,0,0,0,0.0676,0.067,0.0579,0.0581,0.0585,0.0603,0.0675,0.0647,0.0649,0.0632,0.0654,0.0656,0.0736,0.0744,0.0752,0.0794,0.08,0.0812,0.0815,0.0816,0.0817,0,0,0,0,0,0,0,0.0677,0.067,0.0562,0.0578,0.0582,0.0642,0.064,0.0671,0.0681,0.0634,0.0638,0.063,0.0739,0.0748,0.0756,0.0802,0.0812,0.0816,0.0818,0.082,0.0954,0.0956,0,0,0,0,0,0,0.0652,0.067,0.0562,0.0562,0.0629,0.0637,0.0635,0.0601,0.0678,0.0689,0.0628,0.0633,0.074,0.0751,0.0761,0.0857,0.0816,0.082,0.0822,0.0953,0.0955,0.0956,0,0,0,0,0,0,0.0655,0.0641,0.0561,0.0614,0.0607,0.0631,0.0593,0.06,0.0635,0.0671,0.0686,0.0659,0.0742,0.0756,0.0842,0.0859,0.0822,0.0825,0.0952,0.0954,0.0955,0.098,0,0,0,0,0,0,0.0659,0.0641,0.0639,0.0611,0.0603,0.0564,0.059,0.0599,0.0623,0.0631,0.0701,0.0715,0.0745,0.0836,0.0846,0.0864,0.0828,0.095,0.0953,0.0955,0.0978,0.0983,0.0987,0,0,0,0,0,0.0664,0.0624,0.0638,0.0626,0.0587,0.0563,0.0566,0.0595,0.0622,0.0636,0.0711,0.0714,0.0857,0.0841,0.0852,0.0871,0.0949,0.0952,0.0955,0.0976,0.0982,0.0987,0,0,0,0,0,0,0.0697,0.0627,0.0642,0.0588,0.059,0.0575,0.0588,0.0603,0.0668,0.0697,0.0742,0.0761,0.0838,0.0852,0.0834,0.0916,0.0897,0.0903,0.091,0.0916,0.092,0.0929,0.0832,0,0,0,0,0,0.0697,0.0638,0.0618,0.0577,0.0586,0.0597,0.0602,0.0618,0.0651,0.0681,0.0756,0.0816,0.0849,0.0884,0.093,0.0979,0.0988,0.0994,0.0998,0.1002,0.1017,0.1043,0.1051,0.0965,0.0965,0.0965,0,0,0.0723,0.0649,0.0641,0.0581,0.0591,0.0628,0.0607,0.0611,0.0662,0.0686,0.082,0.0844,0.0867,0.0933,0.0965,0.0954,0.1032,0.1006,0.1008,0.1022,0.1047,0.1055,0.1062,0.0967,0.0967,0.0966,0,0,0.0696,0.0663,0.0626,0.0632,0.0617,0.064,0.0648,0.0683,0.0725,0.0812,0.0845,0.0888,0.0977,0.0993,0.1001,0.1053,0.1056,0.1062,0.1094,0.1119,0.1126,0.1132,0.1153,0.1162,0.1062,0.1062,0.1062,0,0.0735,0.0671,0.0625,0.0605,0.0638,0.0658,0.07,0.0734,0.081,0.0841,0.0869,0.0978,0.0998,0.1032,0.1055,0.1062,0.1082,0.1068,0.1124,0.1131,0.1137,0.1157,0.1165,0.1064,0.1064,0.1063,0.1063,0,0.0694,0.069,0.0671,0.0671,0.0706,0.0726,0.0783,0.0845,0.0908,0.0941,0.1015,0.1049,0.1106,0.1101,0.1097,0.1139,0.1142,0.1126,0.1107,0.1147,0.1166,0.1174,0.1066,0.1065,0.1065,0.1065,0,0,0.0686,0.0653,0.0661,0.0693,0.0748,0.0765,0.0861,0.0928,0.0979,0.1058,0.1122,0.1158,0.117,0.118,0.1173,0.1186,0.1233,0.1182,0.1183,0.1198,0.1301,0.1233,0.1236,0.1234,0.1236,0.1237,0.1295,0,0.0696,0.0662,0.0668,0.0758,0.0794,0.0861,0.0944,0.1009,0.1073,0.1152,0.1151,0.1219,0.1199,0.1224,0.1236,0.1241,0.1259,0.122,0.1265,0.1267,0.1197,0.1244,0.1243,0.1302,0.1304,0.1305,0.1306,0,0.0677,0.0659,0.0707,0.0789,0.0819,0.0895,0.1021,0.1088,0.1169,0.1211,0.1263,0.1292,0.1333,0.1306,0.1348,0.1332,0.133,0.132,0.1322,0.1259,0.1215,0.1256,0.1321,0.132,0.1319,0.1318,0.1317,0,0.0652,0.0706,0.0737,0.077,0.0867,0.0925,0.1006,0.1106,0.1161,0.1259,0.1312,0.1365,0.141,0.1421,0.1406,0.1402,0.1431,0.142,0.1355,0.135,0.138,0.1373,0.1451,0.1451,0.1451,0.145,0.145,0,0.0614,0.0661,0.0732,0.0743,0.0841,0.0924,0.1023,0.1095,0.12,0.124,0.1345,0.1369,0.1446,0.1465,0.1442,0.142,0.1467,0.1378,0.1366,0.1389,0.1382,0.1386,0.1378,0.1453,0.1452,0.1452,0.1451,0,0.0554,0.0586,0.065,0.0762,0.0811,0.0884,0.1031,0.1082,0.1201,0.1261,0.1304,0.1412,0.1455,0.1496,0.1511,0.1468,0.1442,0.1412,0.1439,0.1424,0.1345,0.1338,0.1394,0.1392,0.139,0.1389,0.1388,0,0.0508,0.0507,0.0644,0.0694,0.0747,0.0863,0.0927,0.1064,0.1097,0.1232,0.1229,0.1355,0.1401,0.1398,0.1429,0.144,0.1408,0.1404,0.1384,0.136,0.1343,0.1338,0.1332,0.1386,0.1385,0.1385,0.1385,0,0.0431,0.0478,0.0527,0.0626,0.0712,0.0791,0.0877,0.0903,0.1018,0.1137,0.117,0.1236,0.1294,0.1341,0.1378,0.1349,0.1418,0.1388,0.1392,0.1374,0.135,0.1334,0.1331,0.1379,0.138,0.1381,0.1381,0,0.0391,0.0422,0.048,0.0567,0.0661,0.0693,0.0757,0.081,0.0882,0.1026,0.1001,0.1132,0.1235,0.1287,0.1268,0.1305,0.131,0.1273,0.1282,0.1289,0.123,0.1183,0.1165,0,0,0,0,0,0.036,0.0354,0.0414,0.0494,0.0573,0.0627,0.0707,0.076,0.0854,0.086,0.0949,0.099,0.1084,0.1134,0.1161,0.1223,0.1297,0.1246,0.1254,0.135,0.1356,0.1297,0,0,0,0,0,0,0.0333,0.0355,0.038,0.0407,0.0446,0.0516,0.057,0.0634,0.0644,0.0758,0.0817,0.093,0.1032,0.1066,0.1139,0.116,0.1147,0.1332,0.133,0.1347,0.1352,0.1357,0.1298,0,0,0,0,0]},{"header":{"parameterUnit":"m.s-1","parameterCategory":2,"la1":30.2991,"la2":30.254,"lo1":-89.0895,"lo2":-89.0444,"dy":0.0017,"dx":0.0017,"nx":28,"ny":28,"refTime":"2024-05-18T09:00:00:Z","depth":"4","parameterNumber":3,"parameterNumberName":"V-component_of_CURRENTS"},"data":[0,0,0,0,0,0,0,0,0,0,0,0,0,0,0,0,0,0,0,0,0,0,0,0,0,0,0,0,0,0,0,0,0,0,0,0,0,0,0,0,0,0,0,0,0,0,0,0,0,0,0,0,0,0,0,0,0,0,0.0109,0.011,0,0.0132,0.0132,0.0132,0.0102,0.0101,0.01,0.0099,0.0031,0.003,0.0029,0,0,0,0,0,0,0,0,0,0,0,0,0,0.0051,0.0052,0.0109,0.011,0.011,0.0132,0.0132,0.0132,0.0102,0.0101,0.01,0.0099,0.0031,0.003,0.0029,0,0,0,0,0,0,0,0,0,0,0,0,0,0.0073,0.0052,0.0109,0.0099,0.0099,0.0132,0.0132,0.0132,0.0102,0.0101,0.01,0.0098,0.0032,0.003,0.0029,0.0047,0,0,0.0024,0.0024,0,0,0,0,0,0,0,0,0.0072,0.0075,0.01,0.01,0.01,0.0114,0.0086,0.01,0.0103,0.0099,0.0099,0.0098,0.0053,0.005,0.0055,0.0043,0.004,0.0024,0.0023,0.0023,0.0022,0,0,0,0,0,0,0,0.007,0.0074,0.0116,0.0101,0.0101,0.0098,0.0099,0.0089,0.008,0.0099,0.0097,0.0104,0.0052,0.0057,0.0053,0.0039,0.0024,0.0023,0.0022,0.0022,-0.0061,-0.0062,0,0,0,0,0,0,0.0073,0.0073,0.0115,0.0117,0.0085,0.01,0.0101,0.0109,0.0082,0.0078,0.0105,0.0102,0.006,0.0055,0.005,-0.0006,0.0023,0.0021,0.0021,-0.0059,-0.0061,-0.0062,0,0,0,0,0,0,0.0072,0.0077,0.0115,0.0097,0.0101,0.0102,0.0112,0.0111,0.0108,0.0088,0.0081,0.0103,0.0059,0.0053,0.0029,-0.0006,0.0021,0.0019,-0.0058,-0.006,-0.0062,-0.0071,0,0,0,0,0,0,0.007,0.0076,0.0081,0.0097,0.0103,0.0139,0.0113,0.0112,0.0116,0.0112,0.0084,0.0077,0.0057,0.0032,0.0028,-0.0008,0.0018,-0.0056,-0.0059,-0.0061,-0.0069,-0.0073,-0.0077,0,0,0,0,0,0.0068,0.0088,0.0081,0.0086,0.011,0.0141,0.0144,0.0138,0.0117,0.0127,0.0093,0.0077,0.0012,0.0031,0.0026,-0.0011,-0.0055,-0.0058,-0.0061,-0.0068,-0.0073,-0.0077,0,0,0,0,0,0,0.0067,0.0088,0.008,0.0105,0.0121,0.0136,0.0151,0.014,0.0125,0.0114,0.0079,0.0071,0.0026,0.0018,0.0038,-0.0045,-0.0032,-0.0035,-0.0035,-0.004,-0.0044,-0.0042,0.0017,0,0,0,0,0,0.0069,0.0089,0.0105,0.0126,0.0137,0.0141,0.015,0.0147,0.0139,0.0132,0.0098,0.0057,0.0014,-0.0003,-0.0034,-0.0058,-0.0068,-0.0092,-0.0096,-0.0099,-0.0102,-0.0131,-0.0138,-0.0072,-0.0072,-0.0072,0,0,0.0068,0.009,0.0095,0.0127,0.014,0.0153,0.0143,0.0166,0.0148,0.0126,0.0083,0.0047,0.0005,-0.0039,-0.0061,-0.0051,-0.0125,-0.0102,-0.0105,-0.0106,-0.0135,-0.0141,-0.0147,-0.0074,-0.0074,-0.0073,0,0,0.0103,0.0105,0.0138,0.0149,0.0177,0.0172,0.0176,0.0179,0.0152,0.012,0.0079,0.0033,-0.0023,-0.0063,-0.0091,-0.0128,-0.0146,-0.0152,-0.0165,-0.0194,-0.0199,-0.0204,-0.0228,-0.0235,-0.0151,-0.0151,-0.0151,0,0.0104,0.0139,0.0152,0.0185,0.0182,0.0177,0.019,0.0171,0.0151,0.012,0.0101,-0.0007,-0.0039,-0.0103,-0.013,-0.0137,-0.0154,-0.0142,-0.0197,-0.0202,-0.0207,-0.0231,-0.0238,-0.0152,-0.0152,-0.0152,-0.0152,0,0.015,0.0177,0.02,0.0222,0.0222,0.0239,0.021,0.0184,0.0135,0.0103,0.0024,-0.0024,-0.0089,-0.0119,-0.0141,-0.0202,-0.0204,-0.0198,-0.018,-0.0213,-0.0237,-0.0245,-0.0153,-0.0153,-0.0153,-0.0152,0,0,0.0153,0.0219,0.0223,0.0235,0.0234,0.024,0.0199,0.0161,0.0128,0.0066,0.0011,-0.0083,-0.0114,-0.0148,-0.0185,-0.0217,-0.0271,-0.0226,-0.0227,-0.0241,-0.0337,-0.0292,-0.0296,-0.0275,-0.0276,-0.0277,-0.0341,0,0.0182,0.0254,0.0255,0.0273,0.0298,0.0253,0.0213,0.0168,0.0112,0.0058,-0.002,-0.0079,-0.0125,-0.0157,-0.0203,-0.0253,-0.0291,-0.0254,-0.0312,-0.0314,-0.0261,-0.0303,-0.0281,-0.0347,-0.0349,-0.035,-0.0351,0,0.0213,0.0259,0.0301,0.0302,0.0301,0.0282,0.0209,0.0177,0.0098,0.0053,-0.002,-0.0068,-0.0152,-0.0169,-0.0283,-0.0259,-0.0307,-0.0339,-0.0342,-0.0301,-0.0282,-0.0308,-0.0364,-0.0363,-0.0362,-0.0361,-0.036,0,0.0225,0.0272,0.0303,0.0305,0.0309,0.0274,0.0237,0.0168,0.0144,0.0056,0.0041,-0.0071,-0.0115,-0.0203,-0.0292,-0.0291,-0.0393,-0.0393,-0.0398,-0.0395,-0.041,-0.0404,-0.0465,-0.0465,-0.0465,-0.0464,-0.0464,0,0.0252,0.0276,0.0308,0.0332,0.0314,0.029,0.0255,0.02,0.0153,0.0137,0.0044,0.0014,-0.0124,-0.0196,-0.0286,-0.0367,-0.0394,-0.0411,-0.0412,-0.0414,-0.0408,-0.0415,-0.0409,-0.0467,-0.0466,-0.0466,-0.0465,0,0.0274,0.0308,0.0346,0.035,0.0339,0.0316,0.0282,0.0272,0.0216,0.0196,0.0175,0.0073,-0.0028,-0.0144,-0.0279,-0.0338,-0.0426,-0.0443,-0.0438,-0.0436,-0.0414,-0.0407,-0.0464,-0.0463,-0.0462,-0.0461,-0.0461,0,0.0289,0.0332,0.0363,0.0373,0.0371,0.0347,0.0343,0.0295,0.0292,0.0235,0.0231,0.014,0.0063,-0.0094,-0.023,-0.0386,-0.0399,-0.0448,-0.0443,-0.042,-0.0416,-0.041,-0.0405,-0.046,-0.0459,-0.0459,-0.0459,0,0.0316,0.0339,0.0371,0.0409,0.0409,0.0418,0.0399,0.04,0.0355,0.0341,0.0284,0.0189,0.0088,-0.0068,-0.0181,-0.0297,-0.0423,-0.044,-0.0442,-0.0438,-0.0415,-0.0411,-0.0406,-0.0456,-0.0456,-0.0457,-0.0457,0,0.0315,0.0335,0.0393,0.0406,0.0446,0.0458,0.0441,0.043,0.042,0.0362,0.0344,0.0218,0.0138,-0.0021,-0.0134,-0.0235,-0.0261,-0.0296,-0.0306,-0.0311,-0.0245,-0.0192,-0.0173,0,0,0,0,0,0.0307,0.0339,0.0377,0.0398,0.0458,0.047,0.0478,0.0462,0.0435,0.0417,0.0378,0.0284,0.0117,0.0029,-0.0061,-0.0129,-0.0289,-0.0238,-0.0336,-0.044,-0.0443,-0.0387,0,0,0,0,0,0,0.0299,0.0349,0.0374,0.0412,0.0433,0.0477,0.0486,0.046,0.0437,0.0403,0.0315,0.0278,0.0111,0.0179,-0.0057,-0.0091,-0.0162,-0.0317,-0.0319,-0.0438,-0.0441,-0.0444,-0.0387,0,0,0,0,0]}]]